Cedar City, UT

8:29 PM MDT on May 27, 2018 (GMT -0600)
Cedar City Regional

Weather History for KCDC - August, 2013

Change the Weather History Date:

Sunday, August 18, 2013

  Actual Average Record
Temperature  
Mean Temperature 72 °F 71 °F  
Max Temperature 88 °F 87 °F 96 °F (1992)
Min Temperature 56 °F 55 °F 43 °F (1954)
Degree Days  
Heating Degree Days 0 0  
Month to date heating degree days 0 0  
Since 1 June heating degree days 11 79  
Since 1 July heating degree days 0 3  
Cooling Degree Days 7 6  
Month to date cooling degree days 123 132  
Year to date cooling degree days 577 485  
Since 1 June cooling degree days 575 477  
Growing Degree Days 24 (Base 50)    
Moisture  
Dew Point 48 °F    
Average Humidity 47    
Maximum Humidity 72    
Minimum Humidity 21    
Precipitation  
Precipitation T in 0.03 in 1.02 in (1984)
Month to date precipitation 0.09 0.70  
Year to date precipitation 9.41 7.11  
Sea Level Pressure  
Sea Level Pressure 30.00 in    
Wind  
Wind Speed 6 mph (WSW)    
Max Wind Speed 14 mph    
Max Gust Speed 17 mph    
Visibility 10 miles    
Events Thunderstorm    
T = Trace of Precipitation, MM = Missing Value Source: NWS Daily Summary

Daily Weather History Graph

Daily Weather History Graph

Search for Another Location

Airport or City:

Astronomy

Aug. 18, 2013 Rise Set
Actual Time 6:50 AM MDT 8:20 PM MDT
Civil Twilight 6:23 AM MDT 8:48 PM MDT
Nautical Twilight 5:49 AM MDT 9:21 PM MDT
Astronomical Twilight 5:14 AM MDT 9:56 PM MDT
Moon 6:29 PM MDT (8/18) 4:06 AM MDT (8/18)
Length of Visible Light 14h 25m
Length of Day
13h 29m
Waxing Gibbous, 92% of the Moon is Illuminated
Aug 18
Waxing Gibbous
Aug 20
Full
Aug 28
Last Quarter
Sep 5
New
Sep 12
First Quarter

Hourly Weather History & Observations

Time (MDT) Temp. Dew Point Humidity Pressure Visibility Wind Dir Wind Speed Gust Speed Precip Events Conditions
12:53 AM 64.9 °F 51.1 °F 61% 30.02 in 10.0 mi NE 10.4 mph - N/A   Partly Cloudy
1:53 AM 64.0 °F 52.0 °F 65% 30.00 in 10.0 mi SSE 3.5 mph - 0.00 in   Scattered Clouds
2:53 AM 64.0 °F 51.1 °F 63% 29.97 in 10.0 mi SSW 9.2 mph - N/A   Clear
3:53 AM 66.9 °F 46.9 °F 49% 29.95 in 10.0 mi Calm Calm - N/A   Clear
4:53 AM 64.0 °F 48.9 °F 58% 29.96 in 10.0 mi NNE 6.9 mph - N/A   Clear
5:53 AM 60.1 °F 50.0 °F 69% 29.99 in 10.0 mi NE 3.5 mph - N/A   Clear
6:53 AM 59.0 °F 50.0 °F 72% 30.00 in 10.0 mi ESE 5.8 mph - N/A   Clear
7:53 AM 62.1 °F 50.0 °F 65% 30.02 in 10.0 mi SW 3.5 mph - N/A   Clear
8:53 AM 68.0 °F 50.0 °F 52% 30.01 in 10.0 mi Calm Calm - N/A   Mostly Cloudy
9:53 AM 75.9 °F 48.0 °F 37% 30.01 in 10.0 mi WSW 5.8 mph - N/A   Clear
10:53 AM 80.1 °F 46.9 °F 31% 30.01 in 10.0 mi SW 8.1 mph - N/A   Clear
11:53 AM 82.9 °F 45.0 °F 26% 29.99 in 10.0 mi SW 8.1 mph - N/A   Clear
12:53 PM 86.0 °F 44.1 °F 23% 29.97 in 10.0 mi North 4.6 mph - N/A   Clear
1:53 PM 87.1 °F 46.9 °F 25% 29.95 in 10.0 mi WNW 8.1 mph - N/A Thunderstorm Clear
2:17 PM 82.4 °F 48.2 °F 30% 30.20 in 10.0 mi Variable 4.6 mph - N/A   Partly Cloudy
2:53 PM 82.0 °F 46.0 °F 28% 29.96 in 10.0 mi West 6.9 mph - 0.00 in   Mostly Cloudy
3:53 PM 88.0 °F 42.1 °F 20% 29.91 in 10.0 mi West 12.7 mph 16.1 mph N/A   Clear
4:53 PM 82.9 °F 46.0 °F 27% 29.93 in 10.0 mi Variable 5.8 mph - N/A   Clear
5:01 PM 82.4 °F 44.6 °F 26% 30.17 in 10.0 mi SE 5.8 mph - N/A Thunderstorm Clear
5:24 PM 82.4 °F 44.6 °F 26% 30.17 in 10.0 mi ESE 5.8 mph - N/A   Clear
5:53 PM 82.0 °F 44.1 °F 26% 29.94 in 10.0 mi SSE 8.1 mph - N/A   Partly Cloudy
6:53 PM 77.0 °F 46.0 °F 33% 29.96 in 10.0 mi WSW 8.1 mph - N/A   Clear
7:53 PM 75.0 °F 46.0 °F 36% 29.97 in 10.0 mi SSW 3.5 mph - N/A   Clear
8:53 PM 73.0 °F 46.9 °F 39% 29.96 in 10.0 mi North 3.5 mph - N/A   Overcast
9:53 PM 73.0 °F 48.0 °F 41% 29.98 in 10.0 mi NNE 5.8 mph - 0.00 in   Mostly Cloudy
10:53 PM 68.0 °F 51.1 °F 55% 30.00 in 10.0 mi NNW 6.9 mph - N/A   Mostly Cloudy
11:53 PM 66.9 °F 50.0 °F 54% 30.02 in 10.0 mi NW 8.1 mph - N/A   Clear